Tracking 31027 objects as of 19-Jul-2025
HD Live streaming from Space Station
objects crossing your sky now

COSMOS 1934

Track COSMOS 1934 now!
10-day predictions
COSMOS 1934 is classified as:


NORAD ID: 18985
Int'l Code: 1988-023A
Perigee: 953.0 km
Apogee: 1,012.9 km
Inclination: 83.0 °
Period: 104.6 minutes
Semi major axis: 7353 km
RCS: 2.9931 m2 (large)
Launch date: March 22, 1988
Source: Commonwealth of Independent States (former USSR) (CIS)
Launch site: PLESETSK MISSILE AND SPACE COMPLEX (PKMTR)
Your satellite tracking list
FENGYUN 1C DEB
Track 1 satellite(s)




NASA's NSSDC Master Catalog

Two Line Element Set (TLE):
1 18985U 88023A   25199.51070930  .00000036  00000-0  21741-4 0  9991
2 18985  82.9546  42.4478 0040785 343.9826  16.0038 13.76646139750090
Source of the keplerian elements: AFSPC